Home > Weather > Geraldton > Past weeks

Flag for Australia Past Weather in Geraldton, Western Australia, Australia — Yesterday and Last 2 Weeks

Now
65 °F

Mild.


Feels Like: 65 °F
Forecast: 59 / 68 °F
Wind: 10 mph from East

Location: Geraldton Airport

Current Time: Jul 1, 2016 at 2:15:36 PM

Latest Report: Jul 1, 2016 at 12:00 PM


Visibility: N/A

Pressure: 30.23 "Hg

Humidity: 61%

Dew Point: 51 °F

Location of GeraldtonLocation

Past Weather in Geraldton — Graph

°F

Geraldton Temperature Yesterday

Maximum temperature yesterday: 66 °F (at 2:00 PM)
Minimum temperature yesterday: 44 °F (at 6:00 AM)
Average temperature yesterday: 54 °F

High & Low Weather Summary for the Past Weeks

 TemperatureHumidityPressure
High71 °F (Jun 18, 3:00 PM)99% (Jun 26, 12:00 AM)30.30 "Hg (Jun 26, 12:00 AM)
Low40 °F (Jun 27, 6:00 AM)40% (Jun 27, 2:00 PM)29.83 "Hg (Jun 20, 5:00 AM)
Average56 °F80%30.08 "Hg
* Reported Jun 16 12:00 PM — Jul 1 12:00 PM, Geraldton, Weather by CustomWeather, © 2016

Note: Actual official high and low records may vary slightly from our data, if they occured in-between our weather recording intervals... More about our weather records

Advertising

Geraldton Weather History for the Previous 24 Hours

Scroll right to see more
 ConditionsComfort  
Time TempWeatherWind HumidityBarometerVisibility
12:00 PM
Fri, Jul 1
65 °FMild.10 mph61%30.23 "HgN/A
11:00 AM63 °FMild.14 mph63%30.25 "HgN/A
9:00 AM54 °FCool.10 mph69%30.28 "HgN/A
8:00 AM51 °FCool.9 mph75%30.27 "HgN/A
6:00 AM47 °FCool.7 mph87%30.25 "HgN/A
5:00 AM52 °FCool.10 mph71%30.24 "HgN/A
3:00 AM52 °FPassing clouds.15 mph74%30.27 "HgN/A
2:00 AM51 °FCool.10 mph82%30.27 "HgN/A
12:00 AM46 °FCool.7 mph92%30.28 "HgN/A
11:00 PM
Thu, Jun 30
48 °FCool.5 mph92%30.28 "HgN/A
9:00 PM49 °FCool.9 mph92%30.29 "HgN/A
8:00 PM50 °FCool.8 mph91%30.27 "HgN/A
6:00 PM56 °FCool.9 mph84%30.23 "HgN/A
5:00 PM62 °FCool.8 mph70%30.21 "HgN/A
3:00 PM66 °FPassing clouds.14 mph52%30.19 "HgN/A
2:00 PM66 °FMild.13 mph52%30.20 "HgN/A
Weather by CustomWeather, © 2016

See weather overviewHow to use our weather pages